Date,TemperatureHighF,TemperatureAvgF,TemperatureLowF,DewpointHighF,DewpointAvgF,DewpointLowF,HumidityHigh,HumidityAvg,HumidityLow,PressureMaxIn,PressureMinIn,WindSpeedMaxMPH,WindSpeedAvgMPH,GustSpeedMaxMPH,PrecipitationSumIn
2013-2-1,42,38,35,-100,-100,-100,0,0,100,0.00,40.00,0,-999,0,0.08
2013-2-2,41,33,30,-100,-100,-100,0,0,100,0.00,40.00,0,-999,0,0.02
2013-2-3,41,34,28,-100,-100,-100,0,0,100,0.00,40.00,0,-999,0,0.01
2013-2-4,43,40,35,-100,-100,-100,0,0,100,0.00,40.00,0,-999,0,0.02
2013-2-5,45,37,31,-100,-100,-100,0,0,100,0.00,40.00,0,-999,0,0.01
2013-2-6,40,36,32,-100,-100,-100,0,0,100,0.00,40.00,0,-999,0,0.21
2013-2-7,40,32,29,-100,-100,-100,0,0,100,0.00,40.00,0,-999,0,0.01
2013-2-8,39,32,29,-100,-100,-100,0,0,100,0.00,40.00,0,-999,0,0.01
2013-2-9,34,29,24,-100,-100,-100,0,0,100,0.00,40.00,0,-999,0,0.01
2013-2-10,34,26,21,-100,-100,-100,0,0,100,0.00,40.00,0,-999,0,0.01
2013-2-11,34,29,26,-100,-100,-100,0,0,100,0.00,40.00,0,-999,0,0.02
2013-2-12,41,35,31,-100,-100,-100,0,0,100,0.00,40.00,0,-999,0,0.01
2013-2-13,44,40,34,-100,-100,-100,0,0,100,0.00,40.00,0,-999,0,0.10
2013-2-14,40,34,26,-100,-100,-100,0,0,100,0.00,40.00,0,-999,0,0.01
2013-2-15,41,34,30,-100,-100,-100,0,0,100,0.00,40.00,0,-999,0,0.01
2013-2-16,37,34,30,-100,-100,-100,0,0,100,0.00,40.00,0,-999,0,0.12
2013-2-17,37,34,31,-100,-100,-100,0,0,100,0.00,40.00,0,-999,0,0.20
2013-2-18,37,30,25,-100,-100,-100,0,0,100,0.00,40.00,0,-999,0,0.02
2013-2-19,36,28,21,-100,-100,-100,0,0,100,0.00,40.00,0,-999,0,0.02
2013-2-20,36,30,26,-100,-100,-100,0,0,100,0.00,40.00,0,-999,0,0.09
2013-2-21,33,29,24,-100,-100,-100,0,0,100,0.00,40.00,0,-999,0,0.01
2013-2-22,36,32,29,-100,-100,-100,0,0,100,0.00,40.00,0,-999,0,0.09
2013-2-23,39,33,28,-100,-100,-100,0,0,100,0.00,40.00,0,-999,0,0.17
2013-2-24,36,30,23,-100,-100,-100,0,0,100,0.00,40.00,0,-999,0,0.01
2013-2-25,35,32,30,-100,-100,-100,0,0,100,0.00,40.00,0,-999,0,0.02
2013-2-26,36,33,31,-100,-100,-100,0,0,100,0.00,40.00,0,-999,0,0.09
2013-2-27,37,30,23,-100,-100,-100,0,0,100,0.00,40.00,0,-999,0,0.02
2013-2-28,39,33,29,-100,-100,-100,0,0,100,0.00,40.00,0,-999,0,0.02